When you browse on this site, cookies collect data to enhance your experience and personalize the content and advertising you see.
Visit our Privacy Policy to learn more. By continuing to use the site, you agree to this use of cookies and data.
EN

Hourly Weather Armagh

Today, 6 July, Monday

Time Temperature Precipitation Wind Pressure Humidity
00:00 +8°C° 0 mm 5 mps 753 mmHg 91%
01:00 +9°C° 0 mm 6 mps 754 mmHg 89%
02:00 +9°C° 0 mm 6 mps 755 mmHg 87%
03:00 +10°C° 0 mm 6 mps 755 mmHg 85%
04:00 +10°C° 0 mm 6 mps 756 mmHg 86%
05:00 +10°C° 0 mm 6 mps 756 mmHg 87%
06:00 +10°C° 0 mm 5 mps 757 mmHg 89%
07:00 +12°C° 0.1 mm 5 mps 758 mmHg 84%
08:00 +13°C° 0.1 mm 5 mps 759 mmHg 79%
09:00 +13°C° 0.1 mm 5 mps 760 mmHg 75%
10:00 +14°C° 0.1 mm 5 mps 760 mmHg 72%
11:00 +15°C° 0.1 mm 5 mps 760 mmHg 70%
12:00 +16°C° 0.1 mm 5 mps 761 mmHg 67%
13:00 +16°C° 0.1 mm 5 mps 761 mmHg 69%
14:00 +17°C° 0.1 mm 4 mps 761 mmHg 71%
15:00 +17°C° 0.1 mm 4 mps 762 mmHg 72%
16:00 +15°C° 0.1 mm 4 mps 762 mmHg 74%
17:00 +15°C° 0.1 mm 4 mps 762 mmHg 75%
18:00 +15°C° 0.1 mm 4 mps 762 mmHg 77%
19:00 +13°C° 0 mm 3 mps 762 mmHg 81%
20:00 +11°C° 0 mm 3 mps 762 mmHg 85%
21:00 +9°C° 0 mm 2 mps 762 mmHg 89%
22:00 +9°C° 0 mm 2 mps 761 mmHg 90%
23:00 +9°C° 0 mm 2 mps 761 mmHg 91%

Tomorrow, 7 July, Tuesday

Time Temperature Precipitation Wind Pressure Humidity
00:00 +9°C° 0 mm 2 mps 761 mmHg 92%
01:00 +9°C° 0 mm 2 mps 760 mmHg 91%
02:00 +9°C° 0 mm 2 mps 760 mmHg 90%
03:00 +9°C° 0 mm 2 mps 760 mmHg 89%
04:00 +9°C° 0.5 mm 2 mps 759 mmHg 92%
05:00 +9°C° 0.5 mm 2 mps 758 mmHg 95%
06:00 +9°C° 0.5 mm 2 mps 758 mmHg 98%
07:00 +9°C° 0.5 mm 3 mps 757 mmHg 98%
08:00 +10°C° 0.5 mm 3 mps 757 mmHg 97%
09:00 +10°C° 0.5 mm 3 mps 756 mmHg 97%
10:00 +10°C° 1.1 mm 3 mps 756 mmHg 97%
11:00 +10°C° 1.1 mm 3 mps 755 mmHg 97%
12:00 +10°C° 1.1 mm 3 mps 754 mmHg 98%
13:00 +11°C° 0.5 mm 3 mps 754 mmHg 98%
14:00 +13°C° 0.5 mm 2 mps 754 mmHg 97%
15:00 +14°C° 0.5 mm 2 mps 754 mmHg 97%
16:00 +13°C° 0.2 mm 2 mps 754 mmHg 97%
17:00 +12°C° 0.2 mm 3 mps 754 mmHg 96%
18:00 +12°C° 0.2 mm 3 mps 754 mmHg 95%
19:00 +11°C° 0 mm 3 mps 755 mmHg 95%
20:00 +11°C° 0 mm 3 mps 755 mmHg 95%
21:00 +10°C° 0 mm 3 mps 756 mmHg 95%
22:00 +10°C° 0 mm 2 mps 756 mmHg 96%
23:00 +9°C° 0 mm 2 mps 757 mmHg 96%

Day after tomorrow, 8 July, Wednesday

Time Temperature Precipitation Wind Pressure Humidity
00:00 +8°C° 0 mm 2 mps 757 mmHg 97%
01:00 +7°C° 0 mm 2 mps 757 mmHg 96%
02:00 +8°C° 0 mm 1 mps 757 mmHg 96%
03:00 +8°C° 0 mm 1 mps 757 mmHg 96%
04:00 +9°C° 0 mm 1 mps 757 mmHg 95%
05:00 +9°C° 0 mm 1 mps 758 mmHg 95%
06:00 +10°C° 0 mm 1 mps 758 mmHg 94%
07:00 +12°C° 0 mm 1 mps 758 mmHg 89%
08:00 +13°C° 0 mm 1 mps 758 mmHg 84%
09:00 +14°C° 0 mm 0 mps 758 mmHg 79%
10:00 +15°C° 0 mm 1 mps 758 mmHg 76%
11:00 +16°C° 0 mm 1 mps 758 mmHg 73%
12:00 +17°C° 0 mm 2 mps 758 mmHg 70%
13:00 +15°C° 0.4 mm 2 mps 757 mmHg 78%
14:00 +13°C° 0.4 mm 3 mps 757 mmHg 87%
15:00 +11°C° 0.4 mm 3 mps 757 mmHg 95%
16:00 +11°C° 1.5 mm 4 mps 756 mmHg 96%
17:00 +11°C° 1.5 mm 4 mps 755 mmHg 97%
18:00 +11°C° 1.5 mm 4 mps 754 mmHg 98%
19:00 +11°C° 2.9 mm 4 mps 754 mmHg 98%
20:00 +12°C° 2.9 mm 4 mps 753 mmHg 98%
21:00 +12°C° 2.9 mm 4 mps 752 mmHg 99%
22:00 +13°C° 1.9 mm 4 mps 752 mmHg 98%
23:00 +14°C° 1.9 mm 4 mps 751 mmHg 98%

9 July, Thursday

Time Temperature Precipitation Wind Pressure Humidity
00:00 +14°C° 1.9 mm 3 mps 750 mmHg 98%
01:00 +14°C° 0.6 mm 3 mps 750 mmHg 98%
02:00 +14°C° 0.6 mm 3 mps 750 mmHg 98%
03:00 +14°C° 0.6 mm 3 mps 749 mmHg 98%
04:00 +14°C° 0.3 mm 3 mps 750 mmHg 98%
05:00 +14°C° 0.3 mm 3 mps 750 mmHg 98%
06:00 +14°C° 0.3 mm 3 mps 750 mmHg 98%
07:00 +13°C° 0.1 mm 4 mps 751 mmHg 96%
08:00 +13°C° 0.1 mm 4 mps 751 mmHg 94%
09:00 +12°C° 0.1 mm 5 mps 752 mmHg 93%
10:00 +13°C° 0 mm 5 mps 752 mmHg 87%
11:00 +14°C° 0 mm 6 mps 753 mmHg 81%
12:00 +15°C° 0 mm 6 mps 754 mmHg 75%
13:00 +15°C° 0 mm 6 mps 754 mmHg 72%
14:00 +15°C° 0 mm 6 mps 755 mmHg 70%
15:00 +16°C° 0 mm 7 mps 755 mmHg 67%
16:00 +15°C° 0 mm 6 mps 755 mmHg 69%
17:00 +14°C° 0 mm 6 mps 756 mmHg 70%
18:00 +13°C° 0 mm 6 mps 756 mmHg 72%
19:00 +12°C° 0 mm 5 mps 756 mmHg 75%
20:00 +10°C° 0 mm 5 mps 757 mmHg 78%
21:00 +8°C° 0 mm 4 mps 757 mmHg 80%
22:00 +8°C° 0 mm 4 mps 757 mmHg 83%
23:00 +7°C° 0 mm 4 mps 758 mmHg 86%

10 July, Friday

Time Temperature Precipitation Wind Pressure Humidity
00:00 +7°C° 0 mm 4 mps 758 mmHg 89%
01:00 +7°C° 0 mm 4 mps 758 mmHg 90%
02:00 +7°C° 0 mm 4 mps 758 mmHg 92%
03:00 +7°C° 0 mm 4 mps 758 mmHg 93%
04:00 +7°C° 0 mm 4 mps 758 mmHg 92%
05:00 +8°C° 0 mm 4 mps 759 mmHg 90%
06:00 +8°C° 0 mm 4 mps 759 mmHg 88%
07:00 +10°C° 0 mm 5 mps 759 mmHg 83%
08:00 +12°C° 0 mm 5 mps 760 mmHg 79%
09:00 +13°C° 0 mm 5 mps 760 mmHg 74%
10:00 +14°C° 0.2 mm 5 mps 760 mmHg 73%
11:00 +14°C° 0.2 mm 5 mps 761 mmHg 71%
12:00 +15°C° 0.2 mm 5 mps 761 mmHg 70%
13:00 +15°C° 0.2 mm 5 mps 761 mmHg 70%
14:00 +15°C° 0.2 mm 5 mps 761 mmHg 69%
15:00 +15°C° 0.2 mm 5 mps 762 mmHg 69%
16:00 +15°C° 0.1 mm 4 mps 762 mmHg 70%
17:00 +14°C° 0.1 mm 4 mps 762 mmHg 71%
18:00 +14°C° 0.1 mm 4 mps 762 mmHg 72%
19:00 +12°C° 0 mm 3 mps 763 mmHg 77%
20:00 +11°C° 0 mm 3 mps 763 mmHg 82%
21:00 +9°C° 0 mm 2 mps 763 mmHg 87%
22:00 +8°C° 0 mm 2 mps 763 mmHg 89%
23:00 +7°C° 0 mm 2 mps 764 mmHg 91%

11 July, Saturday

Time Temperature Precipitation Wind Pressure Humidity
00:00 +7°C° 0 mm 2 mps 764 mmHg 93%
01:00 +6°C° 0 mm 2 mps 764 mmHg 93%
02:00 +6°C° 0 mm 2 mps 764 mmHg 94%
03:00 +6°C° 0 mm 2 mps 764 mmHg 95%
04:00 +7°C° 0 mm 2 mps 764 mmHg 94%
05:00 +8°C° 0 mm 1 mps 764 mmHg 93%
06:00 +9°C° 0 mm 1 mps 764 mmHg 92%
07:00 +11°C° 0 mm 1 mps 765 mmHg 86%
08:00 +13°C° 0 mm 2 mps 765 mmHg 81%
09:00 +14°C° 0 mm 2 mps 765 mmHg 75%
10:00 +15°C° 0.1 mm 2 mps 765 mmHg 75%
11:00 +15°C° 0.1 mm 2 mps 765 mmHg 74%
12:00 +16°C° 0.1 mm 2 mps 765 mmHg 74%
13:00 +16°C° 0.1 mm 2 mps 765 mmHg 73%
14:00 +17°C° 0.1 mm 2 mps 765 mmHg 72%
15:00 +17°C° 0.1 mm 2 mps 765 mmHg 70%
16:00 +17°C° 0.1 mm 2 mps 765 mmHg 73%
17:00 +17°C° 0.1 mm 2 mps 765 mmHg 75%
18:00 +16°C° 0.1 mm 2 mps 765 mmHg 78%
19:00 +15°C° 0.1 mm 2 mps 765 mmHg 83%
20:00 +13°C° 0.1 mm 2 mps 766 mmHg 88%
21:00 +10°C° 0.1 mm 2 mps 766 mmHg 93%
22:00 +10°C° 0 mm 1 mps 766 mmHg 93%
23:00 +9°C° 0 mm 1 mps 766 mmHg 93%
Show more